Brainerd, MN

12:46 AM CST on February 11, 2016 (GMT -0600)
Brainerd-Crow Wing County Regional

Weather History for KBRD - October, 2011

Change the Weather History Date:

Saturday, October 22, 2011

  Actual Average Record
Temperature  
Mean Temperature 46 °F -  
Max Temperature 61 °F 55 °F 79 °F (1992)
Min Temperature 30 °F 31 °F 15 °F (1976)
Degree Days  
Heating Degree Days 20    
Moisture  
Dew Point 32 °F    
Average Humidity 67    
Maximum Humidity 93    
Minimum Humidity 32    
Precipitation  
Precipitation 0.00 in - - ()
Sea Level Pressure  
Sea Level Pressure 30.07 in    
Wind  
Wind Speed 4 mph (SW)    
Max Wind Speed 12 mph    
Max Gust Speed -    
Visibility 7 miles    
Events      
Averages and records for this station are not official NWS values.
T = Trace of Precipitation, MM = Missing Value Source: NWS Daily Summary

Daily Weather History Graph

Daily Weather History Graph

Search for Another Location

Airport or City:

Trip Planner

Search our weather history database for the weather conditions in past years. The results will help you decide how hot, cold, wet, or windy it might be!

Date:

Astronomy

Oct. 22, 2011 Rise Set
Actual Time 7:43 AM CDT 6:18 PM CDT
Civil Twilight 7:12 AM CDT 6:48 PM CDT
Nautical Twilight 6:37 AM CDT 7:23 PM CDT
Astronomical Twilight 6:02 AM CDT 7:58 PM CDT
Moon 2:25 AM CDT (10/22) 3:50 PM CDT (10/22)
Length of Visible Light 11h 36m
Length of Day
10h 34m
Waning Crescent, 23% of the Moon is Illuminated
Oct 22
Waning Crescent
Oct 26
New
Nov 2
First Quarter
Nov 10
Full
Nov 18
Last Quarter

Hourly Weather History & Observations

Time (CDT) Temp. Windchill Dew Point Humidity Pressure Visibility Wind Dir Wind Speed Gust Speed Precip Events Conditions
12:53 AM 44.1 °F 40.8 °F 34.0 °F 68% 30.06 in 10.0 mi NW 5.8 mph - N/A   Clear
1:53 AM 43.0 °F 38.8 °F 34.0 °F 71% 30.06 in 10.0 mi NNW 6.9 mph - N/A   Clear
2:53 AM 42.1 °F 40.2 °F 33.1 °F 70% 30.07 in 10.0 mi North 3.5 mph - N/A   Clear
4:53 AM 36.0 °F 31.1 °F 30.9 °F 82% 30.09 in 10.0 mi NNW 5.8 mph - N/A   Clear
5:53 AM 36.0 °F - 30.9 °F 82% 30.11 in 9.0 mi Calm Calm - N/A   Clear
7:37 AM 30.2 °F - 26.6 °F 86% 30.11 in 4.0 mi Calm Calm - N/A   Scattered Clouds
7:42 AM 30.2 °F - 28.4 °F 93% 30.11 in 1.5 mi Calm Calm - N/A   Mostly Cloudy
7:48 AM 32.0 °F - 28.4 °F 87% 30.11 in 0.8 mi Calm Calm - N/A   Mist
7:51 AM 30.2 °F - 28.4 °F 93% 30.11 in 1.0 mi Calm Calm - N/A   Mist
7:53 AM 30.9 °F - 27.0 °F 85% 30.14 in 1.5 mi Calm Calm - N/A   Mostly Cloudy
8:08 AM 30.2 °F - 26.6 °F 86% 30.11 in 3.0 mi Calm Calm - N/A   Overcast
8:14 AM 30.2 °F - 26.6 °F 86% 30.11 in 1.8 mi Calm Calm - N/A   Overcast
8:23 AM 30.2 °F - 26.6 °F 86% 30.12 in 3.0 mi Calm Calm - N/A   Mostly Cloudy
8:35 AM 32.0 °F - 28.4 °F 87% 30.12 in 5.0 mi Calm Calm - N/A   Partly Cloudy
8:53 AM 35.1 °F - 32.0 °F 89% 30.16 in 4.0 mi Calm Calm - N/A   Clear
9:53 AM 44.1 °F - 37.0 °F 76% 30.15 in 8.0 mi Calm Calm - N/A   Clear
10:53 AM 50.0 °F - 37.0 °F 61% 30.15 in 10.0 mi Calm Calm - N/A   Clear
11:53 AM 53.1 °F - 35.1 °F 50% 30.14 in 10.0 mi WSW 4.6 mph - N/A   Clear
12:53 PM 55.9 °F - 32.0 °F 40% 30.12 in 10.0 mi West 4.6 mph - N/A   Clear
1:53 PM 57.9 °F - 33.1 °F 39% 30.08 in 10.0 mi SW 8.1 mph - N/A   Clear
2:53 PM 59.0 °F - 32.0 °F 36% 30.06 in 10.0 mi SSW 6.9 mph - N/A   Clear
3:53 PM 61.0 °F - 30.9 °F 32% 30.04 in 10.0 mi SW 8.1 mph - N/A   Clear
4:53 PM 59.0 °F - 33.1 °F 38% 30.03 in 10.0 mi SW 6.9 mph - N/A   Clear
5:53 PM 55.9 °F - 34.0 °F 44% 30.02 in 10.0 mi SSW 8.1 mph - N/A   Clear
6:53 PM 48.9 °F - 34.0 °F 56% 30.02 in 10.0 mi South 6.9 mph - N/A   Clear
7:53 PM 48.0 °F - 34.0 °F 58% 30.01 in 10.0 mi SSE 5.8 mph - N/A   Clear
8:53 PM 46.9 °F - 34.0 °F 61% 29.98 in 10.0 mi South 5.8 mph - N/A   Clear
9:53 PM 48.0 °F - 34.0 °F 58% 29.96 in 10.0 mi South 8.1 mph - N/A   Clear
10:53 PM 48.0 °F - 33.1 °F 56% 29.93 in 10.0 mi South 11.5 mph - N/A   Overcast
11:53 PM 48.9 °F - 32.0 °F 52% 29.88 in 10.0 mi South 11.5 mph - N/A   Scattered Clouds